Weather History for Puyallup, WA

Change the Weather History Date:

Sunday, May 19, 2013

  Actual Average (KTCM) Record (KTCM)
Temperature  
Mean Temperature 54 °F -  
Max Temperature 59 °F 63 °F 86 °F (1963)
Min Temperature 46 °F 43 °F 33 °F (2003)
Degree Days  
Heating Degree Days 12    
Growing Degree Days 4 (Base 50)    
Moisture  
Dew Point 52 °F    
Average Humidity 96    
Maximum Humidity 100    
Minimum Humidity 72    
Precipitation  
Precipitation 0.02 in - - ()
Sea Level Pressure  
Sea Level Pressure 30.37 in    
Wind  
Wind Speed 0 mph (North)    
Max Wind Speed 0 mph    
Max Gust Speed -    
Visibility 9 miles    
Events Rain    
Averages and records for this station are not official NWS values.
T = Trace of Precipitation, MM = Missing Value Source: NWS Daily Summary

Daily Weather History Graph

Daily Weather History Graph

Search for Another Location

Airport:

Trip Planner

Search our weather history database for the weather conditions in past years. The results will help you decide how hot, cold, wet, or windy it might be!

Date:

Astronomy

May. 19, 2013 Rise Set
Actual Time 5:28 AM PDT 8:43 PM PDT
Civil Twilight 4:51 AM PDT 9:20 PM PDT
Nautical Twilight 4:03 AM PDT 10:08 PM PDT
Astronomical Twilight 3:03 AM PDT 11:10 PM PDT
Moon 2:31 PM PDT (5/19) 2:18 AM PDT (5/19)
Length of Visible Light 16h 28m
Length of Day
15h 15m
Waxing Gibbous, 66% of the Moon is Illuminated
May 19
Waxing Gibbous
May 24
Full
May 31
Last Quarter
Jun 8
New
Jun 16
First Quarter

Hourly Weather History & Observations

Time (PDT) Temp. Dew Point Humidity Pressure Visibility Wind Dir Wind Speed Gust Speed Precip Events Conditions
12:15 AM 51.8 °F 51.8 °F 100% 30.29 in 10.0 mi Calm Calm - N/A   Unknown
12:35 AM 53.6 °F 53.6 °F 100% 30.30 in 10.0 mi Calm Calm - N/A   Unknown
12:55 AM 51.8 °F 51.8 °F 100% 30.30 in 10.0 mi Calm Calm - N/A   Unknown
1:15 AM 51.8 °F 51.8 °F 100% 30.30 in 10.0 mi Calm Calm - N/A   Unknown
1:55 AM 51.8 °F 51.8 °F 100% 30.30 in 10.0 mi Calm Calm - N/A   Unknown
2:15 AM 51.8 °F 51.8 °F 100% 30.31 in 10.0 mi Calm Calm - N/A   Unknown
2:35 AM 51.8 °F 51.8 °F 100% 30.31 in 10.0 mi Calm Calm - N/A   Unknown
2:55 AM 51.8 °F 51.8 °F 100% 30.32 in 10.0 mi Calm Calm - N/A   Unknown
3:15 AM 51.8 °F 51.8 °F 100% 30.32 in 10.0 mi Calm Calm - N/A   Unknown
3:35 AM 51.8 °F 51.8 °F 100% 30.33 in 10.0 mi Calm Calm - N/A   Unknown
3:55 AM 51.8 °F 51.8 °F 100% 30.33 in 10.0 mi Calm Calm - N/A   Unknown
4:15 AM 51.8 °F 51.8 °F 100% 30.34 in 10.0 mi Calm Calm - N/A   Unknown
4:35 AM 50.0 °F 50.0 °F 100% 30.34 in 6.0 mi Calm Calm - 0.01 in Rain Light Rain
4:55 AM 50.0 °F 50.0 °F 100% 30.34 in 7.0 mi Calm Calm - 0.01 in Rain Light Rain
5:15 AM 50.0 °F 50.0 °F 100% 30.34 in 10.0 mi Calm Calm - N/A   Unknown
5:35 AM 50.0 °F 50.0 °F 100% 30.35 in 10.0 mi Calm Calm - N/A   Unknown
5:55 AM 50.0 °F 50.0 °F 100% 30.35 in 10.0 mi Calm Calm - N/A   Unknown
6:15 AM 50.0 °F 50.0 °F 100% 30.35 in 9.0 mi Calm Calm - N/A   Unknown
6:35 AM 50.0 °F 50.0 °F 100% 30.36 in 9.0 mi Calm Calm - N/A   Unknown
6:55 AM 50.0 °F 50.0 °F 100% 30.36 in 7.0 mi Calm Calm - N/A   Unknown
7:15 AM 50.0 °F 50.0 °F 100% 30.37 in 4.0 mi Calm Calm - N/A Rain Light Rain
7:35 AM 50.0 °F 50.0 °F 100% 30.37 in 5.0 mi Calm Calm - N/A   Mist
7:55 AM 50.0 °F 50.0 °F 100% 30.38 in 7.0 mi Calm Calm - N/A   Unknown
8:15 AM 50.0 °F 50.0 °F 100% 30.39 in 3.0 mi Calm Calm - N/A Rain Light Rain
8:35 AM 50.0 °F 50.0 °F 100% 30.39 in 2.5 mi Calm Calm - 0.01 in Rain Light Rain
8:55 AM 51.8 °F 51.8 °F 100% 30.39 in 9.0 mi Calm Calm - 0.01 in   Unknown
9:15 AM 53.6 °F 53.6 °F 100% 30.39 in 10.0 mi Calm Calm - N/A   Unknown
9:55 AM 55.4 °F 53.6 °F 94% 30.39 in 10.0 mi Calm Calm - N/A   Unknown
10:35 AM 55.4 °F 53.6 °F 94% 30.39 in 10.0 mi Calm Calm - N/A   Unknown
10:55 AM 55.4 °F 53.6 °F 94% 30.39 in 10.0 mi Calm Calm - N/A   Unknown
11:15 AM 53.6 °F 53.6 °F 100% 30.40 in 10.0 mi Calm Calm - N/A   Unknown
11:55 AM 53.6 °F 53.6 °F 100% 30.40 in 10.0 mi Calm Calm - N/A   Unknown
12:35 PM 53.6 °F 53.6 °F 100% 30.41 in 10.0 mi Calm Calm - N/A Rain Light Rain
12:55 PM 53.6 °F 53.6 °F 100% 30.41 in 7.0 mi Calm Calm - N/A Rain Light Rain
1:15 PM 53.6 °F 53.6 °F 100% 30.41 in 8.0 mi Calm Calm - N/A   Unknown
1:55 PM 53.6 °F 53.6 °F 100% 30.42 in 7.0 mi Calm Calm - N/A Rain Light Rain
2:15 PM 53.6 °F 53.6 °F 100% 30.42 in 7.0 mi Calm Calm - N/A Rain Light Rain
2:35 PM 53.6 °F 53.6 °F 100% 30.42 in 9.0 mi Calm Calm - N/A   Unknown
2:55 PM 55.4 °F 55.4 °F 100% 30.42 in 10.0 mi Calm Calm - N/A   Unknown
3:15 PM 55.4 °F 55.4 °F 100% 30.42 in 10.0 mi Calm Calm - N/A   Unknown
3:55 PM 57.2 °F 53.6 °F 88% 30.41 in 10.0 mi Calm Calm - N/A   Unknown
4:15 PM 57.2 °F 51.8 °F 82% 30.41 in 10.0 mi Calm Calm - N/A   Unknown
4:35 PM 59.0 °F 50.0 °F 72% 30.41 in 10.0 mi Calm Calm - N/A   Unknown
4:55 PM 59.0 °F 50.0 °F 72% 30.41 in 10.0 mi Calm Calm - N/A   Unknown
5:15 PM 59.0 °F 51.8 °F 77% 30.41 in 10.0 mi Calm Calm - N/A   Unknown
5:35 PM 59.0 °F 53.6 °F 82% 30.40 in 10.0 mi Calm Calm - N/A   Unknown
5:55 PM 59.0 °F 53.6 °F 82% 30.39 in 10.0 mi Calm Calm - N/A   Unknown
6:15 PM 59.0 °F 51.8 °F 77% 30.38 in 10.0 mi Calm Calm - N/A   Unknown
6:55 PM 59.0 °F 51.8 °F 77% 30.38 in 10.0 mi Calm Calm - N/A   Unknown
7:15 PM 59.0 °F 51.8 °F 77% 30.38 in 10.0 mi Calm Calm - N/A   Unknown
7:35 PM 59.0 °F 53.6 °F 82% 30.38 in 10.0 mi Calm Calm - N/A   Unknown
7:55 PM 57.2 °F 51.8 °F 82% 30.38 in 10.0 mi Calm Calm - N/A   Unknown
8:15 PM 55.4 °F 53.6 °F 94% 30.37 in 10.0 mi Calm Calm - N/A   Unknown
8:55 PM 51.8 °F 51.8 °F 100% 30.37 in 10.0 mi Calm Calm - N/A   Unknown
9:15 PM 50.0 °F 50.0 °F 100% 30.37 in 10.0 mi Calm Calm - N/A   Unknown
9:35 PM 50.0 °F 50.0 °F 100% 30.37 in 10.0 mi Calm Calm - N/A   Unknown
9:55 PM 50.0 °F 50.0 °F 100% 30.37 in 10.0 mi Calm Calm - N/A   Unknown
10:15 PM 50.0 °F 50.0 °F 100% 30.37 in 10.0 mi Calm Calm - N/A   Unknown
10:35 PM 48.2 °F 48.2 °F 100% 30.37 in 5.0 mi Calm Calm - N/A   Mist
10:55 PM 50.0 °F 50.0 °F 100% 30.36 in 8.0 mi Calm Calm - N/A   Unknown
11:15 PM 50.0 °F 50.0 °F 100% 30.36 in 10.0 mi Calm Calm - N/A   Unknown
11:35 PM 48.2 °F 48.2 °F 100% 30.36 in 3.0 mi Calm Calm - N/A   Mist
11:55 PM 46.4 °F 46.4 °F 100% 30.36 in 5.0 mi Calm Calm - N/A   Mist